SAUDISAT 1C 1 27607U 02058C 22146.23522426 .00000752 00000-0 12409-3 0 9991 2 27607 64.5560 9.8918 0077177 298.7674 60.5691 14.76105647 45093 SAUDISAT 2 1 28371U 04025F 22146.48077531 .00000242 00000-0 67434-4 0 9998 2 28371 98.3761 103.1820 0025326 169.8144 190.3557 14.54549465950093 SAUDISAT 3 1 31118U 07012B 22146.44635962 .00000308 00000-0 60250-4 0 9996 2 31118 97.9681 94.0250 0013684 265.7691 94.1951 14.69319821809925 PISAT 1 41784U 16059B 22146.40445735 .00000761 00000-0 15357-3 0 9990 2 41784 97.9169 190.6125 0030554 237.7743 122.0498 14.63886280302468 FLYING LAPTOP 1 42831U 17042G 22146.52848864 .00001077 00000-0 11183-3 0 9994 2 42831 97.4260 2.2599 0015420 81.6072 278.6917 14.91745243264823